Content
SEND FEEDBACK

Daily
Averages
Monthly
Summary
Canada

QUEBEC CITY, QUEBEC


Home > North America > Canada > Quebec
Elevation: 239 feet     Latitude: 46 48N     Longitude: 071 23W

WEATHER
 
SELECT A DAY
Number of Records: 198,020;   Date Range: 6/30/96 - 12/17/14
 
SHARE

PRINT THIS DATA

[ ← Previous Day ]
WEATHER ALMANAC - OCTOBER 22, 2013
[ Next Day → ]
[ °C ]   °F
Weather ElementAverageHighLow
Temperature45.3 °F51 °F (2:00 pm)35.6 °F (9:16 pm)
Dewpoint42.1 °F48.2 °F (1:00 pm)30.2 °F (9:16 pm)
Humidity87.8 %100 % (6:00 am)62 % (11:00 pm)
Barometer29.70 in29.86 in (1:00 am)29.58 in (2:00 pm)
Wind Speed8.2 mph21.9 mph (2:13 pm)
Wind Gust31.1 mph (2:13 pm)
Weather ElementAverage
Visibility12.6 mi
Wind DirectionSSE (142 °)

Weather ElementTotal
Precipitation---
Heating Degree Days21.7 (Base 65)
Averaged from 35 records on October 22, 2013
WEATHER CONDITIONS BREAKOUT
WIND DIRECTION BREAKOUT
WEATHER BY HOUR - OCTOBER 22, 2013
[ °C ]   °F
Local TimeTemperatureDewpointHumidityBarometerVisibilityWind DirectionWind SpeedGust SpeedPrecipitationEventsConditions
1:00 AM46.4 °F44.6 °F93 %29.86 in15.0 miNE (50°)6.9 mphRainLight Rain Showers
2:00 AM46.0 °F45.0 °F93 %29.83 inENE (70°)3.5 mph
2:00 AM46.4 °F44.6 °F93 %29.85 in15.0 miENE (60°)11.5 mph18.4 mphRainLight Rain Showers
3:00 AM46.4 °F44.6 °F93 %29.82 in10.0 miNE (50°)9.2 mphRainLight Rain
4:00 AM46.4 °F44.6 °F93 %29.81 in10.0 miENE (60°)11.5 mphRainLight Rain
5:00 AM47.0 °F46.0 °F94 %29.77 inNE (50°)3.5 mph
5:00 AM46.4 °F44.6 °F93 %29.79 in10.0 miNE (40°)8.1 mphRainLight Rain
6:00 AM46.4 °F46.4 °F100 %29.77 in10.0 miEast (80°)4.6 mphRainLight Rain
7:00 AM48.2 °F46.4 °F93 %29.75 in4.0 miENE (70°)8.1 mphRainLight Rain
7:39 AM48.2 °F46.4 °F93 %29.73 in1.5 miENE (70°)6.9 mphOvercast
8:00 AM48.0 °F47.0 °F96 %29.71 inEast (80°)5.8 mph
8:00 AM48.2 °F46.4 °F93 %29.73 in6.0 miEast (80°)6.9 mphRainLight Rain
9:00 AM48.2 °F46.4 °F93 %29.70 in6.0 miNE (50°)10.4 mphRainLight Rain
10:00 AM50.0 °F46.4 °F87 %29.69 in10.0 miENE (60°)4.6 mphRainLight Rain
10:41 AM48.2 °F46.4 °F93 %29.68 in15.0 miNNE (20°)3.5 mphOvercast
11:00 AM49.0 °F47.0 °F92 %29.65 inEast (90°)3.5 mph
11:00 AM48.2 °F46.4 °F93 %29.66 in15.0 miENE (60°)4.6 mphOvercast
12:00 PM50.0 °F46.4 °F87 %29.64 in15.0 miENE (70°)4.6 mphOvercast
1:00 PM50.0 °F48.2 °F94 %29.60 in8.0 miESE (120°)5.8 mphRainLight Rain
2:00 PM51.0 °F48.0 °F87 %29.58 inSSW (210°)6.9 mph
2:00 PM50.0 °F46.4 °F87 %29.60 in6.0 miSW (230°)19.6 mph28.8 mphRainRain
2:13 PM46.4 °F42.8 °F87 %29.61 in15.0 miWSW (240°)21.9 mph31.1 mphRainLight Rain
3:00 PM46.4 °F42.8 °F87 %29.63 in15.0 miSW (230°)21.9 mphOvercast
4:00 PM44.6 °F41.0 °F87 %29.65 in25.0 miSSW (210°)15.0 mph20.7 mphMostly Cloudy
5:00 PM46.0 °F41.0 °F76 %29.63 inSW (230°)6.9 mph
5:00 PM46.4 °F41.0 °F81 %29.65 in20.0 miSW (230°)15.0 mph21.9 mphMostly Cloudy
6:00 PM44.6 °F39.2 °F81 %29.66 in20.0 miSSW (200°)11.5 mphPartly Cloudy
7:00 PM41.0 °F37.4 °F87 %29.68 in15.0 miWest (260°)5.8 mphPartly Cloudy
8:00 PM40.0 °F34.0 °F73 %29.67 inWSW (240°)3.5 mph
8:00 PM37.4 °F33.8 °F87 %29.69 in15.0 miWSW (250°)6.9 mphClear
9:00 PM37.4 °F32.0 °F81 %29.70 in15.0 miWSW (250°)6.9 mphClear
9:16 PM35.6 °F30.2 °F81 %29.71 in15.0 miWSW (240°)5.8 mphClear
10:00 PM35.6 °F30.2 °F81 %29.71 in15.0 miWSW (240°)5.8 mphClear
11:00 PM39.0 °F31.0 °F62 %29.69 inWSW (240°)4.6 mph
11:00 PM35.6 °F30.2 °F81 %29.70 in15.0 miWSW (240°)6.9 mphClear
Hourly data recorded from CYQB, located miles away from Quebec City, Quebec







STORIES FROM OUR PARTNERS